Wind_Speed
41 36 31 34 33 35 38 40 41 38 37 41 39 39 37 41 40 42 43 45 46 46 45 46 45 44 43 44 47 48 49 51 52 54 54 54 55 54 52 54 57 59 55 50
41 41 34 34 34 36 39 40 40 41 41 42 42 44 44 46 47 48 49 49 49 49 48 47 46 47 47 46 46 48 51 53 56 57 58 58 55 54 55 56 58 54 49 45
41 40 37 37 37 38 40 43 45 45 47 46 49 49 50 52 52 54 53 52 50 51 51 50 48 46 46 47 48 51 53 56 58 56 55 55 56 57 58 54 48 45 44 45
43 42 43 44 44 45 45 47 49 50 51 51 54 54 55 57 54 53 53 53 52 50 49 48 46 45 45 46 47 49 50 51 52 54 56 59 57 46 41 40 43 44 43 39
47 46 45 44 45 46 46 47 47 50 53 54 55 56 53 54 47 44 42 44 45 46 45 43 41 41 42 43 45 45 46 48 49 48 40 37 39 44 46 44 45 39 33 34
47 50 50 49 48 47 47 48 48 48 49 54 51 53 51 49 47 43 40 40 40 40 40 40 39 39 39 40 41 43 42 39 36 39 42 41 41 39 32 32 33 34 35 38
44 44 46 45 45 44 44 43 44 48 48 43 48 49 45 45 41 39 35 34 31 30 31 31 33 35 36 36 36 37 38 37 38 41 41 40 39 37 35 33 35 36 38 39
45 42 43 45 45 44 46 43 42 42 33 33 47 48 45 44 37 37 35 32 30 29 29 31 32 34 35 36 37 37 37 39 37 37 38 40 39 35 33 35 37 38 36 35
48 46 44 42 43 45 46 42 43 42 43 46 43 42 44 41 36 36 33 31 31 31 32 32 32 32 34 36 37 36 35 33 34 37 38 36 36 35 36 35 35 35 35 36
47 48 47 45 43 45 44 45 41 39 42 37 41 42 36 43 36 33 32 32 31 32 33 32 32 32 31 31 30 29 29 31 32 31 31 33 34 35 33 35 36 36 36 36
50 50 45 47 44 42 45 44 43 41 38 38 45 43 43 42 38 37 36 34 35 34 35 34 30 31 31 31 30 28 28 30 31 32 33 34 36 36 35 35 35 35 34 32
51 51 50 46 46 44 42 41 39 33 34 35 43 46 41 40 39 38 37 36 35 35 36 37 34 33 29 30 29 30 31 33 34 36 35 34 35 37 35 34 33 31 31 27
51 51 49 46 46 45 45 43 42 40 41 44 43 46 39 42 41 38 36 36 37 38 38 37 34 34 33 30 32 34 35 37 38 38 33 33 32 30 31 32 31 29 25 22
49 51 50 44 33 36 38 45 44 43 45 44 45 43 33 39 41 39 40 40 41 40 37 32 31 30 34 34 36 37 39 39 37 37 32 29 30 28 30 31 27 22 20 19
48 48 48 50 49 50 49 49 48 47 47 45 44 39 32 32 38 41 39 39 39 38 36 33 31 31 34 35 36 37 38 37 35 29 26 25 28 28 29 25 21 19 18 17
46 47 48 48 50 51 52 50 49 47 45 44 42 40 31 33 33 34 35 36 35 34 34 33 32 33 34 35 35 35 34 32 27 24 22 30 32 30 25 21 18 17 16 15
42 42 41 43 40 44 49 45 44 42 41 43 41 33 35 33 34 34 31 30 30 31 32 33 33 32 32 32 32 31 27 25 24 27 30 31 30 26 23 19 18 16 15 14
38 35 34 28 28 36 38 35 31 32 34 31 33 31 30 27 25 28 29 28 29 29 27 27 28 29 27 24 26 29 27 28 27 27 30 30 26 24 20 19 16 16 15 15
30 28 28 27 32 31 28 28 30 33 29 27 27 26 23 21 21 23 23 25 23 22 22 21 19 19 21 24 27 28 25 25 27 29 28 25 24 23 20 17 16 15 15 15
21 20 22 24 31 33 33 28 25 27 26 22 20 23 20 16 17 21 22 21 17 14 17 19 19 20 20 22 24 24 25 26 27 26 24 24 24 24 20 18 17 16 16 16
21 25 24 27 31 31 33 29 29 26 22 21 23 23 18 17 16 17 18 16 13 13 16 19 21 22 23 24 25 26 25 25 23 23 25 24 25 24 21 20 18 18 18 19
25 27 28 27 28 31 33 27 27 23 22 20 19 21 21 17 15 13 12 15 13 15 17 19 20 23 24 24 23 22 23 21 21 22 22 24 26 24 23 21 20 21 22 23
32 31 32 34 32 32 32 26 25 20 15 17 17 18 21 19 16 14 14 16 17 18 18 18 20 20 19 19 19 20 19 18 19 19 21 24 25 24 23 22 22 24 26 28
30 35 38 34 31 27 27 23 22 14 18 17 13 20 19 23 22 19 17 18 18 18 19 19 19 18 17 17 18 18 17 18 18 19 22 24 25 24 24 25 26 27 28 29
23 24 24 24 21 22 21 21 24 18 12 18 16 13 22 23 20 17 17 15 15 18 19 18 17 17 18 18 18 17 17 18 19 21 22 23 25 25 25 25 26 27 29 30
18 21 27 23 22 23 21 22 23 26 17 18 14 10 13 17 21 20 17 16 15 16 18 18 18 18 18 18 18 17 18 19 20 21 22 24 24 25 25 25 26 29 30 31
Wind_Direction
293 286 281 271 265 261 262 264 265 265 262 267 268 269 267 270 270 270 270 269 269 269 267 266 266 267 266 267 269 270 270 271 275 277 280 282 286 288 287 287 287 287 287 288
288 285 278 272 266 260 259 259 262 263 263 264 264 265 268 270 269 270 271 271 271 272 272 271 270 270 269 269 268 269 270 272 274 277 279 283 285 284 284 285 285 286 288 289
282 281 276 271 265 262 262 262 261 260 261 262 262 263 265 261 265 268 269 272 274 274 274 274 274 274 273 271 270 269 269 269 272 277 278 279 279 278 278 283 282 281 284 287
276 275 276 277 273 269 266 264 264 263 264 264 264 263 267 271 268 269 271 273 275 277 276 276 277 274 273 272 271 271 271 273 272 272 272 272 275 279 277 278 280 280 285 285
277 276 276 277 276 276 273 273 270 269 270 269 271 274 278 275 278 281 281 279 278 279 280 279 277 275 275 273 270 267 266 267 269 272 278 280 282 283 280 277 276 286 288 284
269 271 272 276 277 277 277 276 275 274 274 274 279 278 279 283 290 290 287 284 283 281 280 280 277 275 272 270 272 272 273 274 275 274 278 280 275 267 274 284 284 288 287 280
272 273 272 275 276 277 279 281 281 280 282 282 277 278 281 285 290 293 295 295 293 291 288 280 276 273 271 268 266 267 270 272 270 264 263 273 279 277 286 286 285 277 277 280
280 274 269 269 272 276 277 279 277 279 279 276 281 282 286 286 290 293 295 295 290 284 278 275 273 270 269 268 267 266 267 274 276 278 278 277 283 286 281 278 279 280 280 284
276 274 270 269 268 270 273 273 272 273 271 270 273 274 278 275 285 289 288 284 281 283 288 286 282 277 274 269 267 270 272 273 274 274 278 283 282 278 274 276 278 280 285 291
270 272 271 269 267 266 265 266 269 269 269 269 270 271 278 282 288 289 287 284 282 282 283 282 281 279 273 266 264 265 267 268 269 271 275 276 275 277 278 279 285 288 287 287
271 269 267 268 267 266 269 267 268 267 264 269 272 268 275 278 285 288 284 283 282 282 281 278 274 270 266 265 266 266 267 268 271 272 274 278 276 276 279 284 283 281 284 286
268 267 266 266 264 264 261 260 262 261 265 268 270 271 278 279 284 282 284 276 273 272 273 274 272 267 266 260 261 265 270 271 275 277 281 281 278 273 278 282 281 285 284 286
263 263 265 264 266 263 264 264 261 260 265 270 266 280 284 285 285 285 279 276 270 269 270 273 274 267 262 263 265 267 270 274 276 279 280 282 277 275 279 282 282 282 281 279
257 258 260 259 250 250 254 267 269 269 268 270 270 277 272 278 278 275 271 270 273 276 277 274 271 266 261 259 263 267 270 273 277 279 278 274 276 278 284 283 278 276 275 276
257 258 259 261 262 263 262 266 268 271 276 275 280 278 278 275 270 265 267 270 270 270 272 272 267 261 260 263 265 270 272 275 275 270 270 278 281 285 284 276 271 270 270 272
264 265 265 266 267 267 268 271 271 274 278 277 280 283 284 267 270 268 264 265 268 268 267 266 263 263 264 268 269 271 274 271 263 257 272 271 278 284 273 267 265 264 266 276
267 268 271 273 277 274 271 277 277 278 277 274 278 281 269 268 264 266 269 268 264 263 263 266 269 269 267 266 268 266 262 261 259 262 266 270 278 269 263 261 256 261 270 281
267 266 270 274 268 269 282 280 279 275 275 276 272 269 266 266 262 265 266 268 267 267 269 268 267 267 262 258 257 257 259 263 267 264 267 271 265 258 256 250 256 265 273 281
267 259 264 262 264 276 277 277 280 282 269 259 257 260 258 259 260 263 265 267 270 271 268 265 261 257 249 258 258 263 261 267 269 268 263 257 253 252 245 247 254 264 274 283
259 258 265 269 269 274 279 285 291 285 269 250 249 248 246 249 254 264 268 268 265 260 253 249 258 261 262 268 263 264 269 269 265 258 253 250 249 242 241 245 251 263 274 281
244 260 262 260 263 270 272 291 293 283 270 250 239 246 242 241 256 268 270 252 250 262 267 268 269 272 267 272 267 265 267 263 256 252 250 247 244 240 241 247 256 265 273 281
256 249 254 257 268 274 282 285 280 267 265 253 245 238 234 242 254 255 257 248 265 274 276 276 274 276 271 269 266 269 264 257 248 245 242 242 243 243 246 252 261 269 276 280
243 252 256 264 271 278 282 277 272 249 239 247 242 250 243 240 250 249 249 256 264 270 285 286 289 283 275 266 272 265 256 248 242 241 243 246 247 248 250 256 265 272 279 283
264 266 270 272 273 268 262 260 250 263 252 236 234 250 248 241 245 256 246 267 270 268 289 296 295 283 277 270 271 265 257 249 244 245 249 251 251 252 254 261 268 276 283 286
267 268 270 258 256 252 249 265 231 244 256 258 259 293 238 243 245 248 258 269 266 277 285 295 297 290 274 268 267 267 261 255 251 251 253 256 257 255 258 266 274 280 285 287
285 269 264 254 257 250 245 252 244 249 253 248 259 266 246 244 241 254 249 256 270 282 289 291 297 301 295 275 265 266 263 259 256 256 258 259 260 259 264 271 280 284 286 289
Height
5761 5761 5762 5758 5757 5756 5754 5753 5752 5753 5750 5749 5750 5749 5748 5744 5746 5744 5742 5742 5741 5740 5739 5738 5737 5736 5736 5734 5733 5731 5729 5727 5726 5724 5723 5722 5721 5719 5716 5713 5710 5706 5704 5702
5751 5749 5749 5748 5746 5745 5744 5743 5744 5743 5743 5740 5740 5739 5739 5737 5734 5733 5732 5730 5729 5728 5728 5728 5727 5725 5724 5724 5724 5723 5721 5719 5716 5714 5712 5710 5708 5706 5702 5699 5696 5693 5691 5689
5740 5738 5738 5736 5735 5734 5733 5732 5732 5731 5730 5731 5730 5729 5727 5724 5725 5722 5720 5718 5718 5717 5716 5715 5714 5714 5713 5712 5711 5710 5708 5707 5705 5703 5700 5697 5695 5693 5690 5687 5685 5683 5681 5679
5729 5727 5725 5724 5723 5722 5722 5721 5720 5718 5717 5718 5715 5718 5715 5712 5713 5712 5710 5709 5707 5706 5704 5704 5703 5703 5701 5700 5698 5697 5696 5694 5692 5689 5688 5685 5684 5682 5679 5676 5674 5673 5671 5668
5718 5715 5714 5712 5710 5710 5710 5707 5706 5706 5705 5703 5703 5702 5703 5699 5700 5699 5698 5697 5695 5694 5694 5693 5692 5691 5690 5688 5687 5686 5684 5682 5680 5679 5676 5675 5673 5671 5669 5667 5665 5663 5662 5659
5705 5703 5702 5700 5698 5696 5695 5694 5693 5693 5692 5691 5691 5691 5693 5687 5686 5686 5685 5684 5683 5683 5681 5680 5680 5679 5678 5677 5675 5674 5672 5671 5670 5668 5667 5665 5662 5660 5659 5658 5656 5653 5652 5650
5695 5693 5690 5689 5687 5685 5685 5683 5682 5682 5680 5682 5679 5680 5682 5677 5675 5672 5671 5670 5670 5670 5670 5669 5667 5666 5665 5665 5663 5662 5661 5660 5659 5658 5656 5654 5653 5651 5650 5648 5647 5644 5642 5641
5683 5683 5681 5680 5679 5677 5675 5674 5674 5673 5673 5673 5667 5671 5666 5666 5665 5663 5661 5661 5660 5660 5659 5658 5657 5655 5654 5653 5652 5651 5650 5650 5648 5647 5646 5645 5644 5642 5641 5639 5637 5635 5633 5631
5671 5670 5668 5668 5667 5668 5664 5665 5663 5662 5662 5661 5663 5665 5659 5658 5657 5655 5654 5652 5651 5649 5648 5645 5645 5644 5644 5643 5642 5642 5641 5641 5638 5639 5638 5636 5635 5633 5631 5629 5628 5625 5623 5621
5659 5658 5656 5655 5656 5654 5654 5653 5654 5652 5652 5651 5653 5653 5648 5645 5648 5646 5643 5642 5640 5640 5639 5637 5636 5635 5634 5633 5633 5633 5632 5632 5630 5630 5629 5627 5625 5623 5622 5621 5619 5616 5615 5613
5645 5644 5647 5642 5643 5644 5642 5642 5641 5641 5642 5640 5640 5643 5637 5639 5638 5637 5634 5633 5631 5630 5629 5628 5627 5626 5626 5625 5625 5624 5624 5623 5622 5621 5620 5618 5616 5615 5614 5613 5610 5609 5607 5605
5630 5628 5630 5631 5629 5630 5631 5631 5630 5629 5631 5629 5626 5632 5631 5628 5627 5625 5624 5622 5621 5619 5618 5617 5617 5617 5617 5617 5616 5615 5615 5614 5613 5611 5611 5609 5607 5606 5606 5604 5603 5601 5599 5597
5616 5614 5615 5617 5616 5615 5616 5618 5619 5617 5617 5617 5616 5620 5622 5615 5614 5613 5611 5610 5609 5609 5608 5607 5607 5607 5608 5608 5607 5606 5606 5605 5603 5602 5602 5601 5599 5598 5598 5596 5595 5593 5591 5590
5599 5600 5601 5604 5609 5605 5604 5604 5605 5605 5604 5605 5606 5606 5616 5606 5603 5602 5599 5599 5599 5598 5598 5598 5598 5598 5597 5597 5597 5597 5596 5595 5593 5593 5593 5592 5591 5591 5590 5588 5587 5586 5585 5584
5585 5585 5587 5588 5589 5589 5591 5592 5592 5591 5593 5589 5595 5592 5599 5596 5590 5589 5589 5589 5588 5588 5588 5588 5588 5588 5588 5587 5587 5587 5586 5585 5584 5584 5584 5584 5584 5583 5582 5580 5580 5580 5579 5577
5575 5576 5574 5577 5576 5575 5576 5580 5580 5581 5581 5578 5578 5580 5583 5580 5579 5579 5578 5578 5579 5578 5577 5577 5577 5578 5578 5578 5577 5576 5576 5576 5576 5576 5577 5577 5577 5576 5575 5574 5574 5574 5573 5572
5565 5564 5564 5565 5566 5564 5565 5570 5569 5569 5568 5566 5567 5572 5568 5569 5568 5569 5569 5569 5569 5569 5568 5567 5567 5568 5568 5567 5567 5568 5568 5568 5568 5570 5570 5569 5569 5568 5568 5568 5568 5568 5567 5565
5555 5555 5555 5555 5556 5553 5557 5557 5558 5558 5555 5555 5556 5557 5557 5558 5559 5558 5559 5559 5559 5558 5558 5558 5558 5558 5558 5558 5559 5560 5561 5560 5560 5561 5561 5561 5561 5562 5562 5563 5562 5562 5561 5559
5546 5547 5546 5546 5548 5547 5548 5547 5546 5544 5546 5545 5546 5548 5549 5549 5550 5551 5551 5550 5550 5550 5550 5550 5550 5551 5551 5552 5552 5552 5553 5552 5552 5552 5553 5554 5554 5555 5556 5556 5556 5555 5554 5553
5538 5538 5539 5539 5538 5538 5538 5540 5539 5536 5537 5538 5540 5540 5541 5543 5544 5543 5543 5543 5543 5543 5544 5544 5545 5545 5545 5545 5544 5544 5544 5544 5544 5544 5546 5546 5548 5549 5549 5550 5550 5549 5547 5546
5530 5530 5531 5531 5530 5533 5531 5532 5530 5530 5533 5530 5531 5532 5535 5536 5537 5537 5537 5537 5538 5539 5539 5539 5538 5538 5537 5537 5536 5536 5536 5536 5537 5537 5538 5540 5541 5542 5543 5543 5543 5542 5540 5539
5522 5523 5523 5523 5523 5524 5524 5525 5523 5522 5522 5522 5523 5525 5528 5530 5531 5531 5532 5534 5534 5534 5533 5533 5532 5531 5530 5529 5528 5528 5528 5529 5529 5530 5532 5533 5534 5535 5536 5536 5536 5535 5533 5531
5515 5515 5515 5515 5516 5514 5515 5516 5514 5513 5515 5516 5518 5520 5522 5524 5526 5527 5527 5528 5529 5529 5528 5527 5525 5524 5523 5522 5522 5522 5522 5522 5523 5524 5526 5527 5528 5529 5530 5529 5529 5527 5526 5524
5505 5504 5504 5504 5506 5505 5504 5506 5507 5508 5509 5511 5512 5514 5515 5518 5520 5522 5523 5523 5523 5523 5522 5521 5519 5518 5517 5517 5517 5516 5516 5517 5517 5518 5519 5520 5521 5522 5522 5522 5521 5520 5518 5516
5499 5497 5496 5495 5497 5497 5498 5499 5500 5502 5504 5505 5506 5506 5509 5512 5514 5516 5517 5518 5518 5518 5517 5516 5514 5512 5511 5511 5511 5511 5511 5511 5511 5512 5513 5514 5514 5515 5515 5514 5513 5512 5509 5507
5492 5491 5488 5489 5490 5490 5494 5494 5496 5498 5499 5501 5502 5503 5504 5506 5509 5510 5511 5512 5513 5513 5512 5511 5509 5507 5505 5505 5504 5505 5505 5505 5505 5506 5506 5507 5507 5507 5507 5506 5505 5503 5500 5498